• In Belarus
  • List of Countries
  • For 7 days
  • Water Temperature
  • Satellite Maps
  • Weather Map
  • Weather Widgets
  • user-avatar
    Login

    Hourly Weather Cobija

    Today, 21 November, Tuesday

    Time Temperature Precipitation Wind Pressure Humidity
    00:00 +23°C° 0 mm 0 mps 735 mmHg 96%
    01:00 +22°C° 0 mm 0 mps 735 mmHg 96%
    02:00 +22°C° 0 mm 0 mps 735 mmHg 97%
    03:00 +22°C° 0 mm 0 mps 735 mmHg 97%
    04:00 +22°C° 0 mm 0 mps 735 mmHg 98%
    05:00 +25°C° 0.1 mm 1 mps 735 mmHg 93%
    06:00 +26°C° 0.1 mm 1 mps 736 mmHg 88%
    07:00 +28°C° 0.1 mm 1 mps 736 mmHg 83%
    08:00 +30°C° 0.4 mm 1 mps 737 mmHg 73%
    09:00 +32°C° 0.4 mm 2 mps 737 mmHg 64%
    10:00 +35°C° 0.4 mm 2 mps 737 mmHg 54%
    11:00 +36°C° 0.1 mm 2 mps 736 mmHg 51%
    12:00 +36°C° 0.1 mm 2 mps 735 mmHg 48%
    13:00 +37°C° 0.1 mm 2 mps 734 mmHg 45%
    14:00 +35°C° 0 mm 1 mps 734 mmHg 49%
    15:00 +34°C° 0 mm 1 mps 733 mmHg 54%
    16:00 +33°C° 0 mm 1 mps 732 mmHg 58%
    17:00 +31°C° 0 mm 1 mps 733 mmHg 62%
    18:00 +30°C° 0 mm 1 mps 734 mmHg 66%
    19:00 +29°C° 0 mm 1 mps 734 mmHg 69%
    20:00 +29°C° 0 mm 1 mps 735 mmHg 71%
    21:00 +28°C° 0 mm 1 mps 735 mmHg 73%
    22:00 +27°C° 0 mm 1 mps 736 mmHg 75%
    23:00 +27°C° 0 mm 1 mps 735 mmHg 77%

    Tomorrow, 22 November, Wednesday

    Time Temperature Precipitation Wind Pressure Humidity
    00:00 +27°C° 0 mm 1 mps 735 mmHg 79%
    01:00 +26°C° 0 mm 1 mps 735 mmHg 81%
    02:00 +26°C° 0.1 mm 1 mps 735 mmHg 83%
    03:00 +23°C° 0.1 mm 0 mps 735 mmHg 85%
    04:00 +23°C° 0.1 mm 0 mps 735 mmHg 87%
    05:00 +24°C° 0.1 mm 0 mps 736 mmHg 84%
    06:00 +25°C° 0.1 mm 0 mps 736 mmHg 81%
    07:00 +26°C° 0.1 mm 0 mps 737 mmHg 78%
    08:00 +30°C° 0 mm 1 mps 737 mmHg 70%
    09:00 +32°C° 0 mm 1 mps 737 mmHg 62%
    10:00 +34°C° 0 mm 1 mps 737 mmHg 54%
    11:00 +34°C° 0 mm 1 mps 736 mmHg 51%
    12:00 +35°C° 0 mm 1 mps 735 mmHg 47%
    13:00 +36°C° 0 mm 1 mps 734 mmHg 43%
    14:00 +35°C° 0 mm 1 mps 734 mmHg 46%
    15:00 +35°C° 0 mm 1 mps 733 mmHg 49%
    16:00 +34°C° 0 mm 1 mps 733 mmHg 53%
    17:00 +32°C° 0 mm 1 mps 733 mmHg 58%
    18:00 +30°C° 0 mm 1 mps 734 mmHg 64%
    19:00 +29°C° 0 mm 1 mps 734 mmHg 70%
    20:00 +28°C° 0 mm 1 mps 735 mmHg 72%
    21:00 +28°C° 0 mm 1 mps 735 mmHg 74%
    22:00 +28°C° 0 mm 1 mps 736 mmHg 76%
    23:00 +27°C° 0 mm 1 mps 736 mmHg 79%

    Day after tomorrow, 23 November, Thursday

    Time Temperature Precipitation Wind Pressure Humidity
    00:00 +27°C° 0 mm 1 mps 735 mmHg 82%
    01:00 +26°C° 0 mm 1 mps 735 mmHg 85%
    02:00 +26°C° 1.4 mm 1 mps 735 mmHg 89%
    03:00 +25°C° 1.4 mm 1 mps 735 mmHg 94%
    04:00 +22°C° 1.4 mm 0 mps 735 mmHg 98%
    05:00 +23°C° 1.1 mm 0 mps 736 mmHg 98%
    06:00 +23°C° 1.1 mm 0 mps 737 mmHg 98%
    07:00 +24°C° 1.1 mm 0 mps 737 mmHg 98%
    08:00 +24°C° 1.1 mm 0 mps 738 mmHg 97%
    09:00 +25°C° 1.1 mm 0 mps 738 mmHg 97%
    10:00 +25°C° 1.1 mm 0 mps 738 mmHg 96%
    11:00 +25°C° 1.2 mm 0 mps 738 mmHg 96%
    12:00 +27°C° 1.2 mm 1 mps 737 mmHg 97%
    13:00 +27°C° 1.2 mm 1 mps 737 mmHg 97%
    14:00 +27°C° 1.1 mm 1 mps 736 mmHg 97%
    15:00 +27°C° 1.1 mm 1 mps 735 mmHg 97%
    16:00 +25°C° 1.1 mm 0 mps 735 mmHg 98%
    17:00 +25°C° 0.3 mm 0 mps 735 mmHg 98%
    18:00 +24°C° 0.3 mm 0 mps 735 mmHg 98%
    19:00 +23°C° 0.3 mm 0 mps 736 mmHg 99%
    20:00 +23°C° 0 mm 0 mps 736 mmHg 99%
    21:00 +23°C° 0 mm 0 mps 737 mmHg 99%
    22:00 +23°C° 0 mm 0 mps 737 mmHg 99%
    23:00 +23°C° 0 mm 0 mps 737 mmHg 99%

    24 November, Friday

    Time Temperature Precipitation Wind Pressure Humidity
    00:00 +23°C° 0 mm 0 mps 736 mmHg 99%
    01:00 +22°C° 0 mm 0 mps 736 mmHg 99%
    02:00 +22°C° 0 mm 0 mps 736 mmHg 99%
    03:00 +22°C° 0 mm 0 mps 736 mmHg 99%
    04:00 +22°C° 0 mm 0 mps 736 mmHg 99%
    05:00 +22°C° 0 mm 0 mps 736 mmHg 98%
    06:00 +23°C° 0 mm 0 mps 737 mmHg 97%
    07:00 +23°C° 0 mm 0 mps 737 mmHg 96%
    08:00 +26°C° 0 mm 0 mps 738 mmHg 83%
    09:00 +28°C° 0 mm 0 mps 738 mmHg 71%
    10:00 +30°C° 0 mm 0 mps 738 mmHg 59%
    11:00 +32°C° 0 mm 0 mps 737 mmHg 52%
    12:00 +34°C° 0 mm 0 mps 736 mmHg 46%
    13:00 +35°C° 0 mm 0 mps 735 mmHg 39%
    14:00 +36°C° 0 mm 1 mps 735 mmHg 43%
    15:00 +35°C° 0 mm 1 mps 734 mmHg 46%
    16:00 +34°C° 0 mm 1 mps 733 mmHg 49%
    17:00 +33°C° 0 mm 1 mps 734 mmHg 55%
    18:00 +31°C° 0 mm 1 mps 734 mmHg 61%
    19:00 +29°C° 0 mm 1 mps 735 mmHg 68%
    20:00 +28°C° 0 mm 1 mps 735 mmHg 70%
    21:00 +27°C° 0 mm 1 mps 736 mmHg 72%
    22:00 +27°C° 0 mm 1 mps 736 mmHg 74%
    23:00 +27°C° 0 mm 1 mps 736 mmHg 75%

    25 November, Saturday

    Time Temperature Precipitation Wind Pressure Humidity
    00:00 +26°C° 0 mm 1 mps 736 mmHg 77%
    01:00 +26°C° 0 mm 1 mps 735 mmHg 79%
    02:00 +25°C° 0.1 mm 1 mps 736 mmHg 83%
    03:00 +25°C° 0.1 mm 1 mps 736 mmHg 87%
    04:00 +24°C° 0.1 mm 1 mps 736 mmHg 91%
    05:00 +25°C° 0.2 mm 1 mps 736 mmHg 91%
    06:00 +26°C° 0.2 mm 1 mps 737 mmHg 90%
    07:00 +26°C° 0.2 mm 1 mps 738 mmHg 90%
    08:00 +28°C° 0.6 mm 1 mps 738 mmHg 87%
    09:00 +30°C° 0.6 mm 1 mps 738 mmHg 84%
    10:00 +31°C° 0.6 mm 1 mps 737 mmHg 81%
    11:00 +31°C° 1.3 mm 1 mps 737 mmHg 80%
    12:00 +31°C° 1.3 mm 1 mps 736 mmHg 80%
    13:00 +31°C° 1.3 mm 2 mps 735 mmHg 79%
    14:00 +31°C° 0.5 mm 1 mps 735 mmHg 80%
    15:00 +30°C° 0.5 mm 1 mps 734 mmHg 81%
    16:00 +30°C° 0.5 mm 1 mps 734 mmHg 83%
    17:00 +29°C° 0 mm 1 mps 734 mmHg 85%
    18:00 +28°C° 0 mm 1 mps 735 mmHg 88%
    19:00 +27°C° 0 mm 1 mps 735 mmHg 90%
    20:00 +26°C° 0.1 mm 1 mps 736 mmHg 91%
    21:00 +26°C° 0.1 mm 1 mps 736 mmHg 92%
    22:00 +26°C° 0.1 mm 1 mps 736 mmHg 93%
    23:00 +25°C° 0.1 mm 1 mps 736 mmHg 93%

    26 November, Sunday

    Time Temperature Precipitation Wind Pressure Humidity
    00:00 +25°C° 0.1 mm 1 mps 735 mmHg 93%
    01:00 +25°C° 0.1 mm 1 mps 735 mmHg 93%
    02:00 +25°C° 0.3 mm 1 mps 735 mmHg 93%
    03:00 +22°C° 0.3 mm 0 mps 735 mmHg 94%
    04:00 +22°C° 0.3 mm 0 mps 736 mmHg 94%
    05:00 +23°C° 0.8 mm 0 mps 736 mmHg 92%
    06:00 +24°C° 0.8 mm 0 mps 737 mmHg 90%
    07:00 +25°C° 0.8 mm 0 mps 738 mmHg 88%
    08:00 +28°C° 0.2 mm 1 mps 738 mmHg 81%
    09:00 +30°C° 0.2 mm 1 mps 737 mmHg 74%
    10:00 +31°C° 0.2 mm 1 mps 737 mmHg 68%
    11:00 +31°C° 1.3 mm 1 mps 736 mmHg 74%
    12:00 +31°C° 1.3 mm 2 mps 736 mmHg 81%
    13:00 +30°C° 1.3 mm 2 mps 735 mmHg 88%
    14:00 +30°C° 1 mm 1 mps 734 mmHg 88%
    15:00 +29°C° 1 mm 1 mps 734 mmHg 88%
    16:00 +29°C° 1 mm 1 mps 734 mmHg 88%
    17:00 +28°C° 0.4 mm 1 mps 734 mmHg 90%
    18:00 +27°C° 0.4 mm 1 mps 735 mmHg 93%
    19:00 +26°C° 0.4 mm 1 mps 735 mmHg 95%
    20:00 +26°C° 0.2 mm 1 mps 735 mmHg 96%
    21:00 +25°C° 0.2 mm 1 mps 735 mmHg 96%
    22:00 +25°C° 0.2 mm 1 mps 735 mmHg 96%
    23:00 +25°C° 0 mm 1 mps 735 mmHg 96%
    Show more